Hourly Data Report for April 12, 2004

SHERBROOKE A
QUEBEC

45°26'00.000" N
71°41'00.000" W
241.40 m
7028124
71610
YSC

Download Data

Hourly Data (April 2004)
Hourly Data Report for April 12, 2004
TIME
LST
Temp Definition
°C
Dew Point Definition
°C
Rel Hum Definition
%
Precip. Amount Definition
mm

Wind Dir Definition
10's deg

Wind Spd Definition
km/h
Visibility Definition
km
Stn Press Definition
kPa
Hmdx Definition


Wind Chill Definition


Weather Definition


00:00 -6.4 -7.9 89     0 15.0 99.50      
01:00 -7.1 -9.1 86   12 4 15.0 99.51   -9  
02:00 -6.7 -8.3 88   8 4 15.0 99.53   -9  
03:00 -6.8 -8.6 87   9 6 15.0 99.54   -10  
04:00 -7.1 -9.1 86   10 4 15.0 99.57   -9  
05:00 -7.6 -9.2 88   8 4 15.0 99.64   -10  
06:00 -5.6 -7.8 84   9 6 15.0 99.70   -8  
07:00 -2.8 -6.7 74   10 6 24.1 99.76   -5 Mainly Clear
08:00 0.4 -5.9 63     0 24.1 99.79     Mainly Clear
09:00 2.9 -6.9 48   22 6 24.1 99.83     Mainly Clear
10:00 4.3 -7.8 41   16 6 24.1 99.80     Mainly Clear
11:00 5.7 -7.7 37   30 11 24.1 99.76     Mainly Clear
12:00 5.1 -8.2 38   1 7 24.1 99.76     Mainly Clear
13:00 6.0 -8.3 35   9 6 24.1 99.72     Mainly Clear
14:00 7.3 -8.2 32   34 6 24.1 99.62     Mainly Clear
15:00 7.7 -8.3 31   7 9 24.1 99.65     Mainly Clear
16:00 7.6 -9.4 29     0 24.1 99.69     Mostly Cloudy
17:00 7.0 -9.3 30   9 6 15.0 99.69      
18:00 5.8 -9.1 33   5 6 15.0 99.71      
19:00 4.4 -8.5 39   4 7 15.0 99.68      
20:00 2.6 -8.5 44   7 6 15.0 99.69      
21:00 1.6 -8.0 49   8 6 15.0 99.69      
22:00 1.1 -7.5 53   7 11 15.0 99.70      
23:00 2.0 -7.4 50   7 11 15.0 99.64      

Notes on Data Quality.

Legend

  • E = Estimated
  • M = Missing
  • NA = Not Available*
  • [empty] = Indicates an unobserved value
Date modified: